Location: Dv?r Skalkov
(49.6765°N, 14.9233°E)
Time: 01:30:42
(UTC+00:00)

Daily predictions for brighter satellites

Satellite Brightness Start Highest point End
(mag) Time Altitude Azimuth Time Altitude Azimuth Time Altitude Azimuth
CENTAUR R/B 3.8 02:14:21 49° ESE 02:14:21 49° ESE 02:20:32 10° SE
ATLAS 2AS CENTAUR R/B 4.5 02:27:57 18° SSE 02:32:29 31° ESE 02:39:07 10° NE
Lacrosse 5 3.8 02:52:47 24° ESE 02:52:47 24° ESE 02:56:23 10° ENE
ATLAS CENTAUR R/B 4.3 02:55:55 13° ENE 02:55:55 13° ENE 02:56:33 10° E
Cosmos 2263 Rocket 3.0 03:01:26 49° ENE 03:01:26 49° ENE 03:06:00 10° NE
SJ 16-02 3.2 03:08:47 29° E 03:08:47 29° E 03:12:02 10° NE
FENGYUN 3A 4.5 03:12:16 10° NNE 03:17:33 49° E 03:22:45 10° S
Cosmos 1709 Rocket 4.3 03:16:20 10° S 03:22:38 69° E 03:28:59 10° NNE
CZ-4C R/B 3.8 03:25:49 14° S 03:29:22 30° ESE 03:34:21 10° NE
COSMO-SKYMED 1 3.8 03:25:52 10° SE 03:29:53 39° ENE 03:30:47 35° NE
BREEZE-M DEB (TANK) 4.2 03:30:34 63° W 03:31:44 76° SSW 03:35:45 10° ESE
Meteor 2-3 Rocket 4.4 03:26:40 10° S 03:32:14 55° E 03:37:54 10° NNE
ATLAS 3B R/B 2.9 03:30:35 48° NNW 03:32:35 70° NE 03:39:45 10° SE
USA 308 4.3 03:35:04 34° NE 03:35:04 34° NE 03:37:51 10° ENE
Cosmos 1943 4.2 03:36:00 34° S 03:36:00 34° S 03:39:14 10° S
Lacrosse 4 Rocket 3.2 03:38:11 24° SSE 03:38:11 24° SSE 03:40:01 10° SSE
EXPRESS MD2 3.6 03:53:25 65° E 03:53:25 65° E 03:58:20 10° E
ALOS 2.1 03:48:34 10° NNE 03:53:17 87° WNW 03:53:17 87° WNW
Cosmos 923 Rocket 3.8 03:53:37 73° W 03:53:53 76° WSW 03:59:10 10° SSE
deb Chang Zheng 4 4.1 03:50:13 10° NNE 03:54:31 60° ESE 03:58:49 10° S
Cosmos 2227 Rocket 4.1 03:57:14 16° N 03:57:14 16° N 03:59:09 10° N
METEOR-M 4.1 03:52:36 10° NNE 03:57:59 82° ESE 04:03:20 10° SSW
Cosmos 2344 4.3 03:53:00 28° NW 03:58:58 87° NE 04:11:49 10° SE
Cosmos 2227 4.2 04:01:36 56° WNW 04:01:44 56° NW 04:07:17 10° NNE
CENTAUR R/B 3.6 04:01:35 37° WSW 04:02:13 38° WSW 04:10:06 10° S
USA 305 3.5 04:02:46 46° N 04:02:46 46° N 04:06:48 10° ENE
NOSS 3-4 (A) 3.3 04:00:49 41° SW 04:03:06 84° NW 04:09:33 10° NE
NOSS 3-4 (C) 3.3 04:00:54 40° SW 04:03:14 85° NW 04:09:41 10° NE
ARGOS Delta rocket 3.8 03:59:13 10° N 04:04:20 63° WNW 04:04:43 61° W
Meteor 1-31 Rocket 3.1 04:02:06 10° NNE 04:05:09 54° NNE 04:05:09 54° NNE
SAR-Lupe-1 4.5 04:02:53 10° SSE 04:05:49 58° SSE 04:05:49 58° SSE
Cosmos 158 Rocket 3.9 04:10:38 55° WSW 04:10:38 55° WSW 04:15:25 10° S
Cosmos 1812 4.1 04:07:44 13° N 04:10:55 39° ENE 04:14:32 10° SE
Cosmos 2228 Rocket 4.2 04:06:44 10° N 04:10:59 43° ENE 04:15:11 10° SSE
USA 306 3.4 04:10:52 46° N 04:11:06 46° N 04:15:16 10° ENE
Cosmos 1515 Rocket 3.5 04:09:36 28° N 04:11:59 85° E 04:16:27 10° S
Meteor 2-17 Rocket 4.3 04:08:16 10° S 04:14:19 89° E 04:20:25 10° N
Cosmos 1151 Rocket 4.3 04:17:01 26° SSW 04:17:01 26° SSW 04:19:05 10° SSW
SL-4 R/B 1.9 04:15:02 65° N 04:15:02 65° N 04:18:45 10° ENE
Cosmos 1782 2.7 04:16:34 69° WSW 04:16:34 69° WSW 04:20:29 10° S
PSLV R/B 3.9 04:13:09 10° SSE 04:17:17 83° ENE 04:19:23 29° N
SKYMED 2 3.4 04:13:33 10° S 04:17:54 74° WSW 04:19:24 40° NNW
Cosmos 1844 Rocket 3.5 04:13:23 10° S 04:18:51 53° ESE 04:24:22 10° NE
Cosmos 1680 Rocket 3.5 04:20:02 39° NW 04:21:49 59° WSW 04:27:01 10° S
SJ-12 3.8 04:18:15 10° NNE 04:22:21 89° W 04:26:24 10° SSW
ATLAS 2AS CENTAUR R/B 3.0 04:15:30 13° SW 04:22:52 82° NW 04:30:44 10° NE
FALCON 9 DEB 3.4 04:24:40 51° S 04:24:59 55° SSE 04:28:09 10° ENE
FALCON 9 DEB 3.6 04:26:37 47° N 04:26:44 47° N 04:30:06 10° E
Cosmos 2297 Rocket 4.2 04:30:30 12° NNW 04:30:30 12° NNW 04:32:18 10° N
ATLAS 5 CENTAUR R/B 2.9 04:31:19 28° NNW 04:31:19 28° NNW 04:33:11 10° NNE
Cosmos 1844 4.4 04:27:08 10° S 04:32:31 54° ESE 04:37:57 10° NE
ATLAS CENTAUR R/B 1.1 04:32:06 54° WNW 04:32:45 66° SW 04:36:38 10° SSE
ADEOS 3.7 04:27:55 10° N 04:32:58 50° WNW 04:37:59 10° SW
RESURS DK-1 2.5 04:28:50 10° SSW 04:32:59 75° ESE 04:37:09 10° NNE
CRYOSAT 2 4.4 04:28:30 10° SSW 04:33:15 53° W 04:38:02 10° NNW
Lacrosse 5 1.8 04:32:03 28° WSW 04:34:49 85° NNW 04:39:55 10° NE
Cosmos 1328 Rocket 4.3 04:35:39 33° WSW 04:35:39 33° WSW 04:38:56 10° SSW
Meteor PRIRODA 3.6 04:31:32 10° NNE 04:35:18 89° E 04:39:02 10° SSW
Meteor 2-6 Rocket 4.0 04:31:18 10° NNW 04:36:43 85° W 04:42:10 10° S
Cosmos 1500 Rocket 3.7 04:32:58 10° S 04:37:16 76° E 04:41:37 10° NNE
ERBS 3.5 04:38:12 27° N 04:38:12 27° N 04:40:53 10° NE
H-2A R/B 3.3 04:35:18 10° NNE 04:39:12 62° E 04:43:03 10° S
Cosmos 1437 Rocket 3.5 04:37:01 10° N 04:40:45 52° ENE 04:44:25 10° SSE
Cosmos 2112 Rocket 4.3 04:38:54 26° NW 04:41:32 47° WSW 04:46:37 10° S
Okean O Rocket 4.1 04:39:05 10° NE 04:42:46 25° E 04:46:25 10° SSE
Gbstr 26 Del rocket 3.6 04:43:34 29° WSW 04:44:19 32° SW 04:47:50 10° SSE
Cosmos 2263 Rocket 2.9 04:43:11 28° WNW 04:44:41 32° NW 04:49:47 10° NNE
SJ 16-02 1.9 04:45:52 32° W 04:46:39 34° WNW 04:50:45 10° N
Nadezhda 3 Rocket 4.0 04:42:44 10° N 04:49:07 88° E 04:55:21 10° S
Cosmos 1898 Rocket 3.5 04:48:49 10° SSW 04:54:07 68° WNW 04:59:29 10° NNE
CZ-2C R/B 3.5 04:50:30 10° SE 04:55:45 50° ENE 05:00:55 10° N
FENGYUN 3A 4.4 04:52:59 10° N 04:57:40 30° WNW 05:02:18 10° WSW
Sich 1 4.1 04:53:55 10° SSE 04:58:11 50° E 05:02:29 10° NNE
FALCON 9 DEB 2.9 04:56:35 26° WSW 04:58:13 86° SSE 05:01:27 10° ENE
FALCON 9 DEB 2.8 04:56:45 27° WSW 04:58:20 89° S 05:01:35 10° ENE
Envisat 3.4 04:53:16 10° NNE 04:58:22 66° ESE 05:03:25 10° S
SJ-7 4.4 04:55:47 10° NNE 04:59:51 84° E 05:03:58 10° SSW
Cosmos 1743 Rocket 3.5 04:56:51 10° SSW 05:01:15 62° WNW 05:05:43 10° N
H-2A R/B 3.0 04:58:01 10° NNE 05:01:50 56° ESE 05:05:35 10° S
Cosmos 1408 Rocket 4.2 04:59:19 10° SW 05:03:24 34° WNW 05:07:29 10° N
Cosmos 2082 Rocket 3.7 04:59:06 10° NNW 05:04:11 32° NE 05:09:15 10° ESE
NOSS 7 (H) 4.0 05:02:49 10° SW 05:06:04 86° NW 05:09:01 10° NE
COSMO-SKYMED 1 3.6 05:02:33 10° SSW 05:06:11 26° W 05:07:59 20° WNW
CZ-4B R/B 4.4 05:01:12 10° NNE 05:06:20 45° E 05:11:30 10° S
USA 307 3.3 05:05:08 21° WNW 05:07:48 56° NNE 05:12:04 10° E
Cosmos 1937 Rocket 3.4 05:06:04 10° SSW 05:11:12 66° WNW 05:16:24 10° NNE
USA 308 3.2 05:11:14 19° WNW 05:14:10 58° NNE 05:18:26 10° E
Cosmos 1833 Rocket 3.3 05:09:09 10° NNW 05:14:42 55° NE 05:20:12 10° SE
MOS 1 Rocket 3.6 05:11:44 10° S 05:16:27 51° W 05:21:28 10° NNW
CZ-4B R/B 3.7 05:12:23 10° N 05:16:30 35° WNW 05:20:32 10° SW
Cosmos 2154 Rocket 4.0 05:10:57 10° SSW 05:17:08 70° WNW 05:23:26 10° N
CZ-4C R/B 2.3 05:12:19 10° WSW 05:17:25 59° NW 05:23:38 10° NE
Meteor 1-27 Rocket 3.8 05:12:29 10° NNW 05:18:15 79° W 05:24:06 10° S
Cosmos 1689 Rocket 4.2 05:17:35 10° SW 05:18:11 12° WSW 05:18:11 12° WSW
Meteor 1-10 Rocket 4.4 05:14:51 10° NNW 05:20:11 48° W 05:25:32 10° SSW
Cosmos 1805 Rocket 3.5 05:15:58 10° SSW 05:20:25 77° W 05:24:55 10° N
FALCON 9 DEB 2.9 05:18:32 15° WSW 05:21:04 73° NNW 05:24:19 10° ENE
ATLAS 3B R/B 3.5 05:17:51 14° WNW 05:22:56 34° WSW 05:29:12 10° S
COSMOS 2406 3.4 05:19:02 10° NNW 05:24:49 76° ENE 05:30:35 10° SSE
Aureole 2 Rocket 1.7 05:22:29 10° SW 05:24:58 52° WNW 05:27:30 10° NNE
Cosmos 1048 Rocket 4.1 05:21:44 10° NNW 05:27:04 84° ENE 05:32:16 10° SSE
YAOGAN 6 2.5 05:23:58 10° N 05:27:26 59° WNW 05:30:51 10° SSW
Cosmos 1666 Rocket 4.1 05:23:15 10° S 05:27:31 63° E 05:31:49 10° NNE
Cosmos 1862 3.9 05:24:19 10° SW 05:28:05 36° WNW 05:31:53 10° N
Genesis I 3.5 05:26:20 10° WSW 05:30:00 43° NW 05:33:44 10° NNE
ALOS 3.9 05:27:32 10° NNW 05:30:01 14° NW 05:31:45 12° W
DMSP B5D2-2 4.3 05:26:21 10° SSE 05:31:33 75° ENE 05:36:47 10° NNW
Cosmos 2341 Rocket 4.1 05:26:53 10° S 05:33:05 88° ESE 05:39:22 10° N
Cosmos 2278 Rocket 3.7 05:29:02 10° S 05:34:19 42° ESE 05:39:38 10° NE
PSLV R/B 4.1 05:32:30 10° N 05:36:10 40° WNW 05:39:44 10° SW
SL-8 Rocket 4.2 05:34:34 10° S 05:40:42 79° E 05:46:54 10° NNE
USA 305 3.0 05:38:55 11° WNW 05:43:02 74° NNE 05:47:20 10° ESE
BREEZE M DEB (TANK) 3.2 05:37:59 10° WSW 05:43:31 46° SSE 05:45:54 10° E
Okean 1 4.3 05:39:41 10° N 05:43:39 50° ENE 05:47:35 10° SSE
Cosmos 405 Rocket 3.6 05:40:50 10° SW 05:44:02 27° WNW 05:47:17 10° N
NOAA 12 4.1 05:39:55 10° NNE 05:45:15 88° WNW 05:50:30 10° SSW
Cosmos 1812 4.2 05:43:41 10° NW 05:46:25 19° W 05:49:09 10° SW
Cosmos 2228 Rocket 4.3 05:45:30 10° NW 05:48:55 22° W 05:52:18 10° SW
USA 306 3.0 05:47:09 10° WNW 05:51:28 80° NNE 05:55:47 10° ESE
Cosmos 1633 Rocket 3.1 05:49:32 10° S 05:53:58 85° W 05:58:25 10° N
SL-4 R/B 1.7 05:50:56 10° WNW 05:54:48 84° NNE 05:58:23 10° ESE
NOSS 3-4 (A) 4.3 05:49:28 10° W 05:54:53 32° NNW 06:00:46 10° NE
NOSS 3-4 (C) 4.3 05:49:35 10° W 05:55:01 32° NNW 06:00:54 10° NE
USA 234 3.6 05:49:51 10° ENE 05:56:25 76° SE 06:02:58 10° SW
Cosmos 1356 3.6 05:56:15 10° SSW 05:59:33 47° WNW 06:02:53 10° N
NOSS 3-1 (C) 4.4 05:56:03 10° NW 06:03:09 61° NE 06:11:30 10° ESE
